Location: Ełk
(53.8214°N, 22.3622°E)
Time: 19:19:55
(UTC+01:00)

ISS - Visible Passes

Search period start: 22 February 2018 00:00
Search period end: 04 March 2018 00:00
Orbit: 402 x 407 km, 51.6° (Epoch: 23 February)

Date Brightness Start Highest point End Pass type
(mag) Time Alt. Az. Time Alt. Az. Time Alt. Az.
27 Feb -0.8 05:35:51 10° SSE 05:37:16 12° SE 05:38:42 10° ESE visible
01 Mar -1.4 05:26:18 10° SSW 05:28:48 20° SSE 05:31:19 10° E visible
02 Mar -1.1 04:34:53 10° S 04:36:43 14° SE 04:38:33 10° ESE visible
03 Mar -2.3 05:17:25 10° SW 05:20:22 31° SSE 05:23:20 10° E visible
